• In Hungary
  • List of Countries
  • For 7 days
  • Water Temperature
  • Satellite Maps
  • Weather Map
  • News
  • Weather Widgets
  • user-avatar
    Login

    Hourly Weather Nawojowa

    Today, 23 October, Tuesday

    Time Temperature Precipitation Wind Pressure Humidity
    00:00 +7°C° 0.1 mm 2 mps 734 mmHg 80%
    01:00 +7°C° 0 mm 2 mps 734 mmHg 82%
    02:00 +7°C° 0 mm 2 mps 734 mmHg 83%
    03:00 +7°C° 0 mm 2 mps 734 mmHg 84%
    04:00 +7°C° 0 mm 3 mps 734 mmHg 86%
    05:00 +6°C° 0 mm 2 mps 733 mmHg 88%
    06:00 +6°C° 0 mm 2 mps 733 mmHg 89%
    07:00 +5°C° 0 mm 2 mps 733 mmHg 91%
    08:00 +7°C° 0 mm 2 mps 732 mmHg 81%
    09:00 +8°C° 0 mm 3 mps 731 mmHg 70%
    10:00 +10°C° 0 mm 3 mps 731 mmHg 60%
    11:00 +10°C° 0 mm 4 mps 730 mmHg 58%
    12:00 +11°C° 0 mm 4 mps 729 mmHg 55%
    13:00 +10°C° 0 mm 5 mps 728 mmHg 53%
    14:00 +9°C° 0.2 mm 5 mps 727 mmHg 57%
    15:00 +9°C° 0.2 mm 5 mps 726 mmHg 61%
    16:00 +8°C° 0.2 mm 5 mps 725 mmHg 65%
    17:00 +8°C° 0.3 mm 6 mps 724 mmHg 69%
    18:00 +7°C° 0.3 mm 6 mps 723 mmHg 73%
    19:00 +7°C° 0.3 mm 6 mps 722 mmHg 77%
    20:00 +7°C° 0.4 mm 6 mps 721 mmHg 78%
    21:00 +8°C° 0.4 mm 7 mps 721 mmHg 79%
    22:00 +8°C° 0.4 mm 7 mps 720 mmHg 81%
    23:00 +8°C° 1.3 mm 7 mps 719 mmHg 82%

    Tomorrow, 24 October, Wednesday

    Time Temperature Precipitation Wind Pressure Humidity
    00:00 +8°C° 1.3 mm 7 mps 719 mmHg 84%
    01:00 +8°C° 1.3 mm 6 mps 718 mmHg 86%
    02:00 +8°C° 2.1 mm 6 mps 717 mmHg 86%
    03:00 +7°C° 2.1 mm 6 mps 717 mmHg 86%
    04:00 +7°C° 2.1 mm 6 mps 716 mmHg 86%
    05:00 +5°C° 0.8 mm 6 mps 717 mmHg 83%
    06:00 +5°C° 0.8 mm 7 mps 717 mmHg 80%
    07:00 +4°C° 0.8 mm 8 mps 717 mmHg 77%
    08:00 +4°C° 0.4 mm 8 mps 718 mmHg 72%
    09:00 +3°C° 0.4 mm 9 mps 718 mmHg 67%
    10:00 +3°C° 0.4 mm 9 mps 719 mmHg 63%
    11:00 +3°C° 0.2 mm 9 mps 720 mmHg 59%
    12:00 +3°C° 0.2 mm 9 mps 720 mmHg 55%
    13:00 +3°C° 0.2 mm 9 mps 720 mmHg 52%
    14:00 +4°C° 0 mm 8 mps 721 mmHg 52%
    15:00 +2°C° 0 mm 8 mps 721 mmHg 53%
    16:00 +3°C° 0 mm 7 mps 722 mmHg 54%
    17:00 +3°C° 0 mm 7 mps 723 mmHg 56%
    18:00 +2°C° 0 mm 6 mps 723 mmHg 57%
    19:00 +2°C° 0 mm 6 mps 724 mmHg 59%
    20:00 +2°C° 0 mm 6 mps 724 mmHg 61%
    21:00 +1°C° 0 mm 5 mps 725 mmHg 62%
    22:00 +1°C° 0 mm 5 mps 725 mmHg 64%
    23:00 +1°C° 0 mm 5 mps 726 mmHg 66%

    Day after tomorrow, 25 October, Thursday

    Time Temperature Precipitation Wind Pressure Humidity
    00:00 0°C° 0 mm 5 mps 726 mmHg 69%
    01:00 0°C° 0 mm 5 mps 726 mmHg 71%
    02:00 0°C° 0 mm 4 mps 726 mmHg 75%
    03:00 0°C° 0 mm 4 mps 726 mmHg 79%
    04:00 0°C° 0 mm 4 mps 727 mmHg 82%
    05:00 0°C° 0 mm 4 mps 726 mmHg 82%
    06:00 +1°C° 0 mm 3 mps 726 mmHg 81%
    07:00 +1°C° 0 mm 3 mps 726 mmHg 80%
    08:00 +2°C° 0.6 mm 3 mps 726 mmHg 80%
    09:00 +3°C° 0.6 mm 3 mps 725 mmHg 80%
    10:00 +4°C° 0.6 mm 3 mps 725 mmHg 80%
    11:00 +5°C° 1 mm 4 mps 724 mmHg 82%
    12:00 +6°C° 1 mm 5 mps 723 mmHg 83%
    13:00 +8°C° 1 mm 5 mps 723 mmHg 85%
    14:00 +8°C° 0.5 mm 5 mps 723 mmHg 86%
    15:00 +8°C° 0.5 mm 5 mps 723 mmHg 87%
    16:00 +8°C° 0.5 mm 5 mps 722 mmHg 88%
    17:00 +8°C° 0.2 mm 6 mps 723 mmHg 88%
    18:00 +8°C° 0.2 mm 6 mps 723 mmHg 88%
    19:00 +8°C° 0.2 mm 6 mps 723 mmHg 87%
    20:00 +8°C° 0.3 mm 6 mps 723 mmHg 88%
    21:00 +7°C° 0.3 mm 5 mps 724 mmHg 88%
    22:00 +7°C° 0.3 mm 5 mps 724 mmHg 88%
    23:00 +7°C° 0.1 mm 4 mps 724 mmHg 89%

    26 October, Friday

    Time Temperature Precipitation Wind Pressure Humidity
    00:00 +6°C° 0.1 mm 4 mps 724 mmHg 89%
    01:00 +7°C° 0.1 mm 3 mps 725 mmHg 89%
    02:00 +7°C° 0.1 mm 3 mps 725 mmHg 90%
    03:00 +7°C° 0.1 mm 3 mps 725 mmHg 90%
    04:00 +7°C° 0.1 mm 3 mps 725 mmHg 90%
    05:00 +7°C° 0 mm 3 mps 725 mmHg 90%
    06:00 +6°C° 0 mm 2 mps 726 mmHg 90%
    07:00 +6°C° 0 mm 2 mps 726 mmHg 90%
    08:00 +7°C° 0 mm 2 mps 726 mmHg 85%
    09:00 +8°C° 0 mm 3 mps 726 mmHg 80%
    10:00 +10°C° 0 mm 3 mps 726 mmHg 75%
    11:00 +10°C° 0 mm 3 mps 726 mmHg 74%
    12:00 +11°C° 0 mm 3 mps 726 mmHg 73%
    13:00 +11°C° 0 mm 3 mps 726 mmHg 72%
    14:00 +12°C° 0 mm 2 mps 725 mmHg 75%
    15:00 +10°C° 0 mm 2 mps 725 mmHg 79%
    16:00 +10°C° 0 mm 1 mps 725 mmHg 82%
    17:00 +10°C° 0 mm 1 mps 725 mmHg 84%
    18:00 +8°C° 0 mm 2 mps 725 mmHg 86%
    19:00 +7°C° 0 mm 2 mps 725 mmHg 88%
    20:00 +7°C° 0 mm 2 mps 724 mmHg 88%
    21:00 +7°C° 0 mm 2 mps 724 mmHg 89%
    22:00 +7°C° 0 mm 2 mps 724 mmHg 89%
    23:00 +7°C° 0 mm 2 mps 724 mmHg 90%

    27 October, Saturday

    Time Temperature Precipitation Wind Pressure Humidity
    00:00 +7°C° 0 mm 2 mps 723 mmHg 91%
    01:00 +7°C° 0 mm 2 mps 723 mmHg 92%
    02:00 +7°C° 0 mm 2 mps 723 mmHg 92%
    03:00 +7°C° 0 mm 2 mps 723 mmHg 93%
    04:00 +7°C° 0 mm 2 mps 722 mmHg 93%
    05:00 +7°C° 0 mm 2 mps 722 mmHg 93%
    06:00 +7°C° 0 mm 2 mps 722 mmHg 93%
    07:00 +7°C° 0 mm 2 mps 722 mmHg 92%
    08:00 +9°C° 0 mm 2 mps 722 mmHg 86%
    09:00 +10°C° 0 mm 2 mps 722 mmHg 79%
    10:00 +13°C° 0 mm 2 mps 722 mmHg 72%
    11:00 +13°C° 0 mm 2 mps 722 mmHg 71%
    12:00 +13°C° 0 mm 2 mps 722 mmHg 69%
    13:00 +13°C° 0 mm 2 mps 722 mmHg 68%
    14:00 +12°C° 0.1 mm 2 mps 722 mmHg 73%
    15:00 +11°C° 0.1 mm 1 mps 722 mmHg 77%
    16:00 +11°C° 0.1 mm 1 mps 722 mmHg 82%
    17:00 +10°C° 1 mm 1 mps 722 mmHg 86%
    18:00 +9°C° 1 mm 1 mps 723 mmHg 89%
    19:00 +9°C° 1 mm 1 mps 723 mmHg 93%
    20:00 +8°C° 0.9 mm 1 mps 723 mmHg 93%
    21:00 +8°C° 0.9 mm 1 mps 723 mmHg 94%
    22:00 +8°C° 0.9 mm 1 mps 723 mmHg 94%
    23:00 +8°C° 1.1 mm 1 mps 723 mmHg 94%

    28 October, Sunday

    Time Temperature Precipitation Wind Pressure Humidity
    00:00 +7°C° 1.1 mm 2 mps 723 mmHg 94%
    01:00 +6°C° 1.1 mm 2 mps 722 mmHg 94%
    02:00 +6°C° 1.6 mm 2 mps 722 mmHg 94%
    03:00 +6°C° 1.6 mm 2 mps 722 mmHg 94%
    04:00 +5°C° 1.6 mm 3 mps 721 mmHg 94%
    05:00 +6°C° 1.1 mm 2 mps 721 mmHg 94%
    06:00 +6°C° 1.1 mm 2 mps 721 mmHg 94%
    07:00 +6°C° 1.1 mm 2 mps 721 mmHg 94%
    08:00 +6°C° 0.4 mm 2 mps 721 mmHg 93%
    09:00 +7°C° 0.4 mm 2 mps 721 mmHg 93%
    10:00 +7°C° 0.4 mm 3 mps 721 mmHg 93%
    11:00 +8°C° 0.4 mm 2 mps 721 mmHg 92%
    12:00 +9°C° 0.4 mm 2 mps 720 mmHg 92%
    13:00 +9°C° 0.4 mm 2 mps 720 mmHg 92%
    14:00 +10°C° 0.2 mm 2 mps 720 mmHg 93%
    15:00 +10°C° 0.2 mm 2 mps 720 mmHg 94%
    16:00 +10°C° 0.2 mm 2 mps 719 mmHg 95%
    17:00 +10°C° 0.1 mm 2 mps 719 mmHg 95%
    18:00 +10°C° 0.1 mm 2 mps 719 mmHg 95%
    19:00 +10°C° 0.1 mm 2 mps 719 mmHg 95%
    20:00 +10°C° 0 mm 2 mps 718 mmHg 93%
    21:00 +11°C° 0 mm 3 mps 718 mmHg 92%
    22:00 +11°C° 0 mm 3 mps 718 mmHg 90%
    23:00 +11°C° 0 mm 3 mps 717 mmHg 89%

    29 October, Monday

    Time Temperature Precipitation Wind Pressure Humidity
    00:00 +11°C° 0 mm 3 mps 717 mmHg 87%
    01:00 +11°C° 0 mm 3 mps 716 mmHg 86%
    02:00 +11°C° 0 mm 3 mps 716 mmHg 86%
    03:00 +11°C° 0 mm 3 mps 716 mmHg 85%
    04:00 +11°C° 0 mm 3 mps 715 mmHg 85%
    05:00 +11°C° 0 mm 3 mps 715 mmHg 84%
    06:00 +11°C° 0 mm 3 mps 715 mmHg 84%
    07:00 +11°C° 0 mm 3 mps 715 mmHg 83%
    08:00 +12°C° 0 mm 4 mps 715 mmHg 80%
    09:00 +13°C° 0 mm 4 mps 715 mmHg 76%
    10:00 +14°C° 0 mm 5 mps 715 mmHg 73%
    11:00 +14°C° 0.4 mm 5 mps 714 mmHg 74%
    12:00 +14°C° 0.4 mm 5 mps 714 mmHg 75%
    13:00 +14°C° 0.4 mm 5 mps 714 mmHg 77%
    14:00 +14°C° 0.2 mm 4 mps 714 mmHg 80%
    15:00 +13°C° 0.2 mm 4 mps 714 mmHg 84%
    16:00 +12°C° 0.2 mm 4 mps 714 mmHg 87%
    17:00 +12°C° 0 mm 4 mps 714 mmHg 88%
    18:00 +12°C° 0 mm 3 mps 714 mmHg 89%
    19:00 +12°C° 0 mm 3 mps 713 mmHg 90%
    20:00 +12°C° 0 mm 3 mps 714 mmHg 90%
    21:00 +12°C° 0 mm 4 mps 714 mmHg 90%
    22:00 +12°C° 0 mm 4 mps 714 mmHg 89%
    23:00 +11°C° 0 mm 4 mps 714 mmHg 89%
    Show more